• In Austria
  • List of Countries
  • For 7 days
  • Water Temperature
  • Satellite Maps
  • Weather Map
  • News
  • Weather Widgets
  • user-avatar
    Login

    Hourly Weather Quito

    Today, 17 December, Sunday

    Time Temperature Precipitation Wind Pressure Humidity
    00:00 +16°C° 0.6 mm 0 mps 622 mmHg 94%
    01:00 +16°C° 0 mm 0 mps 622 mmHg 95%
    02:00 +16°C° 0.7 mm 0 mps 622 mmHg 95%
    03:00 +16°C° 0.7 mm 0 mps 622 mmHg 95%
    04:00 +16°C° 0.7 mm 0 mps 622 mmHg 95%
    05:00 +18°C° 0.4 mm 1 mps 622 mmHg 95%
    06:00 +19°C° 0.4 mm 1 mps 622 mmHg 94%
    07:00 +19°C° 0 mm 1 mps 623 mmHg 94%
    08:00 +20°C° 0.6 mm 1 mps 623 mmHg 91%
    09:00 +20°C° 0.6 mm 2 mps 623 mmHg 89%
    10:00 +20°C° 0.6 mm 2 mps 623 mmHg 86%
    11:00 +23°C° 0.5 mm 2 mps 623 mmHg 81%
    12:00 +24°C° 0.5 mm 2 mps 623 mmHg 76%
    13:00 +24°C° 0 mm 2 mps 623 mmHg 74%
    14:00 +24°C° 1.3 mm 2 mps 622 mmHg 77%
    15:00 +23°C° 1.3 mm 2 mps 622 mmHg 80%
    16:00 +23°C° 1.3 mm 2 mps 621 mmHg 83%
    17:00 +21°C° 1.3 mm 2 mps 621 mmHg 86%
    18:00 +20°C° 1.3 mm 2 mps 621 mmHg 90%
    19:00 +19°C° 1.3 mm 1 mps 621 mmHg 93%
    20:00 +19°C° 0.8 mm 1 mps 622 mmHg 94%
    21:00 +19°C° 0.8 mm 1 mps 622 mmHg 94%
    22:00 +19°C° 0.8 mm 1 mps 623 mmHg 94%
    23:00 +19°C° 0.6 mm 1 mps 622 mmHg 94%

    Tomorrow, 18 December, Monday

    Time Temperature Precipitation Wind Pressure Humidity
    00:00 +18°C° 0.6 mm 1 mps 622 mmHg 95%
    01:00 +18°C° 0.6 mm 1 mps 622 mmHg 95%
    02:00 +18°C° 0.6 mm 1 mps 622 mmHg 95%
    03:00 +17°C° 0.6 mm 2 mps 622 mmHg 95%
    04:00 +17°C° 0.6 mm 2 mps 621 mmHg 96%
    05:00 +17°C° 1.1 mm 2 mps 622 mmHg 95%
    06:00 +16°C° 1.1 mm 2 mps 622 mmHg 95%
    07:00 +16°C° 1.1 mm 2 mps 622 mmHg 95%
    08:00 +17°C° 1.4 mm 2 mps 622 mmHg 94%
    09:00 +17°C° 1.4 mm 2 mps 622 mmHg 93%
    10:00 +17°C° 1.4 mm 2 mps 622 mmHg 93%
    11:00 +19°C° 0.2 mm 2 mps 622 mmHg 85%
    12:00 +21°C° 0.2 mm 2 mps 622 mmHg 76%
    13:00 +24°C° 0.2 mm 2 mps 623 mmHg 68%
    14:00 +24°C° 0.7 mm 2 mps 622 mmHg 71%
    15:00 +23°C° 0.7 mm 1 mps 622 mmHg 74%
    16:00 +23°C° 0.7 mm 1 mps 621 mmHg 77%
    17:00 +22°C° 1.2 mm 1 mps 621 mmHg 82%
    18:00 +20°C° 1.2 mm 1 mps 621 mmHg 87%
    19:00 +17°C° 1.2 mm 0 mps 621 mmHg 92%
    20:00 +16°C° 0.6 mm 0 mps 621 mmHg 93%
    21:00 +16°C° 0.6 mm 0 mps 621 mmHg 93%
    22:00 +16°C° 0.6 mm 0 mps 621 mmHg 94%
    23:00 +16°C° 0.4 mm 0 mps 621 mmHg 95%

    Day after tomorrow, 19 December, Tuesday

    Time Temperature Precipitation Wind Pressure Humidity
    00:00 +16°C° 0.4 mm 0 mps 621 mmHg 96%
    01:00 +16°C° 0.4 mm 1 mps 621 mmHg 96%
    02:00 +16°C° 0.3 mm 1 mps 620 mmHg 96%
    03:00 +16°C° 0.3 mm 1 mps 620 mmHg 97%
    04:00 +16°C° 0.3 mm 1 mps 620 mmHg 97%
    05:00 +18°C° 0.1 mm 1 mps 621 mmHg 96%
    06:00 +18°C° 0.1 mm 1 mps 621 mmHg 95%
    07:00 +19°C° 0.1 mm 1 mps 622 mmHg 94%
    08:00 +21°C° 0.5 mm 1 mps 622 mmHg 89%
    09:00 +22°C° 0.5 mm 1 mps 623 mmHg 84%
    10:00 +24°C° 0.5 mm 1 mps 624 mmHg 78%
    11:00 +24°C° 1.5 mm 1 mps 623 mmHg 79%
    12:00 +24°C° 1.5 mm 1 mps 622 mmHg 80%
    13:00 +24°C° 1.5 mm 1 mps 622 mmHg 80%
    14:00 +23°C° 2.4 mm 1 mps 621 mmHg 84%
    15:00 +22°C° 2.4 mm 1 mps 620 mmHg 89%
    16:00 +20°C° 2.4 mm 1 mps 620 mmHg 93%
    17:00 +20°C° 3 mm 1 mps 620 mmHg 94%
    18:00 +19°C° 3 mm 1 mps 621 mmHg 95%
    19:00 +18°C° 3 mm 2 mps 621 mmHg 96%
    20:00 +17°C° 1.6 mm 2 mps 621 mmHg 96%
    21:00 +17°C° 1.6 mm 2 mps 622 mmHg 96%
    22:00 +17°C° 1.6 mm 2 mps 622 mmHg 96%
    23:00 +17°C° 2 mm 2 mps 622 mmHg 96%

    20 December, Wednesday

    Time Temperature Precipitation Wind Pressure Humidity
    00:00 +17°C° 2 mm 2 mps 621 mmHg 96%
    01:00 +17°C° 2 mm 2 mps 621 mmHg 97%
    02:00 +16°C° 1.6 mm 2 mps 621 mmHg 97%
    03:00 +16°C° 1.6 mm 2 mps 620 mmHg 97%
    04:00 +16°C° 1.6 mm 2 mps 620 mmHg 96%
    05:00 +16°C° 2.3 mm 2 mps 621 mmHg 96%
    06:00 +16°C° 2.3 mm 2 mps 621 mmHg 96%
    07:00 +16°C° 2.3 mm 2 mps 621 mmHg 96%
    08:00 +16°C° 1.4 mm 2 mps 622 mmHg 95%
    09:00 +16°C° 1.4 mm 2 mps 622 mmHg 95%
    10:00 +16°C° 1.4 mm 2 mps 622 mmHg 94%
    11:00 +17°C° 0.3 mm 2 mps 622 mmHg 91%
    12:00 +18°C° 0.3 mm 2 mps 622 mmHg 88%
    13:00 +18°C° 0.3 mm 3 mps 621 mmHg 86%
    14:00 +19°C° 0.1 mm 2 mps 621 mmHg 83%
    15:00 +20°C° 0.1 mm 2 mps 621 mmHg 80%
    16:00 +20°C° 0.1 mm 2 mps 621 mmHg 77%
    17:00 +19°C° 0.1 mm 2 mps 621 mmHg 82%
    18:00 +19°C° 0.1 mm 1 mps 621 mmHg 87%
    19:00 +18°C° 0.1 mm 1 mps 621 mmHg 92%
    20:00 +16°C° 0 mm 1 mps 621 mmHg 93%
    21:00 +16°C° 0 mm 1 mps 622 mmHg 94%
    22:00 +16°C° 0 mm 1 mps 622 mmHg 95%
    23:00 +16°C° 0 mm 1 mps 622 mmHg 95%

    21 December, Thursday

    Time Temperature Precipitation Wind Pressure Humidity
    00:00 +15°C° 0 mm 1 mps 621 mmHg 96%
    01:00 +15°C° 0 mm 1 mps 621 mmHg 96%
    02:00 +15°C° 0 mm 1 mps 621 mmHg 96%
    03:00 +15°C° 0 mm 1 mps 621 mmHg 96%
    04:00 +15°C° 0 mm 1 mps 621 mmHg 97%
    05:00 +15°C° 0 mm 1 mps 621 mmHg 94%
    06:00 +16°C° 0 mm 1 mps 622 mmHg 92%
    07:00 +18°C° 0 mm 1 mps 623 mmHg 89%
    08:00 +19°C° 0 mm 2 mps 623 mmHg 81%
    09:00 +20°C° 0 mm 2 mps 624 mmHg 73%
    10:00 +23°C° 0 mm 2 mps 624 mmHg 65%
    11:00 +22°C° 0.5 mm 3 mps 624 mmHg 67%
    12:00 +24°C° 0.5 mm 3 mps 623 mmHg 69%
    13:00 +24°C° 0.5 mm 3 mps 623 mmHg 71%
    14:00 +22°C° 1 mm 3 mps 622 mmHg 76%
    15:00 +21°C° 1 mm 3 mps 622 mmHg 82%
    16:00 +21°C° 1 mm 3 mps 621 mmHg 87%
    17:00 +19°C° 0.6 mm 3 mps 622 mmHg 89%
    18:00 +18°C° 0.6 mm 2 mps 622 mmHg 92%
    19:00 +17°C° 0.6 mm 2 mps 622 mmHg 95%
    20:00 +17°C° 0.1 mm 2 mps 622 mmHg 95%
    21:00 +16°C° 0.1 mm 2 mps 622 mmHg 96%
    22:00 +16°C° 0.1 mm 2 mps 623 mmHg 96%
    23:00 +16°C° 0 mm 2 mps 622 mmHg 96%

    22 December, Friday

    Time Temperature Precipitation Wind Pressure Humidity
    00:00 +15°C° 0 mm 2 mps 622 mmHg 96%
    01:00 +15°C° 0 mm 2 mps 621 mmHg 96%
    02:00 +15°C° 0 mm 2 mps 621 mmHg 96%
    03:00 +15°C° 0 mm 2 mps 621 mmHg 96%
    04:00 +14°C° 0 mm 2 mps 621 mmHg 96%
    05:00 +15°C° 0 mm 1 mps 621 mmHg 94%
    06:00 +16°C° 0 mm 1 mps 622 mmHg 92%
    07:00 +16°C° 0 mm 1 mps 622 mmHg 90%
    08:00 +19°C° 0 mm 2 mps 623 mmHg 78%
    09:00 +21°C° 0 mm 2 mps 623 mmHg 66%
    10:00 +24°C° 0 mm 2 mps 624 mmHg 54%
    11:00 +25°C° 0 mm 2 mps 624 mmHg 51%
    12:00 +26°C° 0 mm 3 mps 623 mmHg 48%
    13:00 +27°C° 0 mm 3 mps 623 mmHg 45%
    14:00 +26°C° 0 mm 3 mps 622 mmHg 48%
    15:00 +26°C° 0 mm 3 mps 622 mmHg 51%
    16:00 +26°C° 0 mm 3 mps 621 mmHg 55%
    17:00 +24°C° 0 mm 2 mps 621 mmHg 61%
    18:00 +20°C° 0 mm 2 mps 621 mmHg 68%
    19:00 +18°C° 0 mm 2 mps 621 mmHg 75%
    20:00 +17°C° 0 mm 2 mps 621 mmHg 77%
    21:00 +18°C° 0 mm 1 mps 621 mmHg 79%
    22:00 +16°C° 0 mm 1 mps 621 mmHg 80%
    23:00 +16°C° 0 mm 1 mps 621 mmHg 83%
    Show more